Location: Alsip
(41.6689°N, 87.7387°W)
Time: 17:17:04
(UTC+00:00)

XW-2B - Visible Passes

Search period start: 21 October 2021 00:00
Search period end: 31 October 2021 00:00
Orbit: 503 x 524 km, 97.5° (Epoch: 21 October)

Date Brightness Start Highest point End Pass type
(mag) Time Alt. Az. Time Alt. Az. Time Alt. Az.
21 Oct ? 11:20:29 10° NE 11:23:47 30° E 11:27:04 10° SSE visible
21 Oct ? 23:34:13 10° SSW 23:37:39 35° W 23:41:06 10° NNW visible
22 Oct ? 11:05:31 10° NE 11:08:17 20° E 11:11:02 10° SE visible
23 Oct ? 10:50:59 10° ENE 10:52:45 13° E 10:54:31 10° ESE visible
26 Oct ? 00:08:01 10° SW 00:10:09 15° W 00:12:18 10° WNW visible
26 Oct ? 11:37:07 10° NNE 11:40:44 49° E 11:44:20 10° S visible
26 Oct ? 23:51:40 10° SSW 23:54:37 22° W 23:57:35 10° NW visible
27 Oct ? 11:21:54 10° NNE 11:25:15 31° E 11:28:35 10° SSE visible
27 Oct ? 23:35:43 10° SSW 23:39:06 34° W 23:42:31 10° NNW visible
28 Oct ? 11:06:53 10° NE 11:09:44 20° E 11:12:34 10° SE visible
28 Oct ? 23:20:00 10° S 23:23:37 54° W 23:27:16 10° NNW visible
29 Oct ? 10:52:15 10° ENE 10:54:10 14° E 10:56:05 10° ESE visible
